• In Czech Republic
  • List of Countries
  • For 7 days
  • Water Temperature
  • Satellite Maps
  • Weather Map
  • Weather Widgets
  • user-avatar
    Login

    Hourly Weather Chizha 2

    Today, 20 September, Thursday

    Time Temperature Precipitation Wind Pressure Humidity
    00:00 +12°C° 0 mm 4 mps 756 mmHg 60%
    01:00 +12°C° 0 mm 4 mps 756 mmHg 62%
    02:00 +11°C° 0 mm 4 mps 756 mmHg 64%
    03:00 +10°C° 0 mm 4 mps 755 mmHg 70%
    04:00 +10°C° 0 mm 4 mps 756 mmHg 72%
    05:00 +10°C° 0 mm 4 mps 756 mmHg 74%
    06:00 +10°C° 0 mm 3 mps 756 mmHg 75%
    07:00 +12°C° 0 mm 4 mps 756 mmHg 68%
    08:00 +14°C° 0 mm 4 mps 756 mmHg 61%
    09:00 +16°C° 0 mm 5 mps 756 mmHg 53%
    10:00 +17°C° 0 mm 5 mps 756 mmHg 49%
    11:00 +19°C° 0 mm 5 mps 756 mmHg 46%
    12:00 +20°C° 0 mm 5 mps 756 mmHg 42%
    13:00 +21°C° 0 mm 5 mps 756 mmHg 43%
    14:00 +21°C° 0 mm 6 mps 756 mmHg 44%
    15:00 +22°C° 0 mm 6 mps 756 mmHg 44%
    16:00 +21°C° 0 mm 4 mps 756 mmHg 50%
    17:00 +20°C° 0 mm 3 mps 756 mmHg 55%
    18:00 +19°C° 0 mm 2 mps 756 mmHg 61%
    19:00 +19°C° 0.2 mm 1 mps 756 mmHg 64%
    20:00 +19°C° 0.2 mm 1 mps 756 mmHg 68%
    21:00 +18°C° 0.2 mm 1 mps 755 mmHg 71%
    22:00 +18°C° 0.4 mm 1 mps 755 mmHg 73%
    23:00 +18°C° 0.4 mm 1 mps 755 mmHg 75%

    Tomorrow, 21 September, Friday

    Time Temperature Precipitation Wind Pressure Humidity
    00:00 +17°C° 0.4 mm 2 mps 755 mmHg 76%
    01:00 +17°C° 0.3 mm 2 mps 755 mmHg 79%
    02:00 +16°C° 0.3 mm 2 mps 755 mmHg 82%
    03:00 +16°C° 0.3 mm 2 mps 755 mmHg 85%
    04:00 +16°C° 0 mm 2 mps 755 mmHg 87%
    05:00 +16°C° 0 mm 2 mps 755 mmHg 89%
    06:00 +16°C° 0 mm 2 mps 755 mmHg 91%
    07:00 +17°C° 0 mm 3 mps 756 mmHg 84%
    08:00 +19°C° 0 mm 3 mps 756 mmHg 76%
    09:00 +20°C° 0 mm 4 mps 756 mmHg 69%
    10:00 +21°C° 0.1 mm 4 mps 757 mmHg 64%
    11:00 +22°C° 0.1 mm 4 mps 757 mmHg 59%
    12:00 +23°C° 0.1 mm 4 mps 757 mmHg 55%
    13:00 +23°C° 0.1 mm 5 mps 757 mmHg 54%
    14:00 +23°C° 0.1 mm 5 mps 758 mmHg 54%
    15:00 +23°C° 0.1 mm 6 mps 758 mmHg 53%
    16:00 +22°C° 0 mm 5 mps 758 mmHg 58%
    17:00 +21°C° 0 mm 5 mps 759 mmHg 62%
    18:00 +19°C° 0 mm 5 mps 759 mmHg 66%
    19:00 +19°C° 0 mm 5 mps 760 mmHg 68%
    20:00 +18°C° 0 mm 4 mps 760 mmHg 70%
    21:00 +17°C° 0 mm 4 mps 761 mmHg 72%
    22:00 +17°C° 0 mm 4 mps 761 mmHg 74%
    23:00 +16°C° 0 mm 3 mps 761 mmHg 77%

    Day after tomorrow, 22 September, Saturday

    Time Temperature Precipitation Wind Pressure Humidity
    00:00 +16°C° 0 mm 3 mps 762 mmHg 79%
    01:00 +16°C° 0 mm 2 mps 762 mmHg 80%
    02:00 +15°C° 0 mm 2 mps 762 mmHg 81%
    03:00 +15°C° 0 mm 2 mps 762 mmHg 82%
    04:00 +15°C° 0 mm 2 mps 763 mmHg 83%
    05:00 +15°C° 0 mm 2 mps 763 mmHg 84%
    06:00 +15°C° 0 mm 2 mps 763 mmHg 85%
    07:00 +16°C° 0 mm 2 mps 764 mmHg 77%
    08:00 +17°C° 0 mm 2 mps 764 mmHg 69%
    09:00 +19°C° 0 mm 2 mps 764 mmHg 61%
    10:00 +20°C° 0 mm 2 mps 764 mmHg 57%
    11:00 +21°C° 0 mm 2 mps 764 mmHg 53%
    12:00 +21°C° 0 mm 2 mps 764 mmHg 48%
    13:00 +23°C° 0 mm 1 mps 763 mmHg 46%
    14:00 +23°C° 0 mm 1 mps 763 mmHg 44%
    15:00 +24°C° 0 mm 1 mps 763 mmHg 42%
    16:00 +23°C° 0 mm 1 mps 763 mmHg 46%
    17:00 +22°C° 0 mm 1 mps 763 mmHg 49%
    18:00 +21°C° 0 mm 1 mps 763 mmHg 52%
    19:00 +20°C° 0 mm 1 mps 763 mmHg 54%
    20:00 +20°C° 0 mm 1 mps 763 mmHg 55%
    21:00 +19°C° 0 mm 1 mps 763 mmHg 56%
    22:00 +19°C° 0 mm 1 mps 763 mmHg 57%
    23:00 +19°C° 0 mm 1 mps 763 mmHg 57%

    23 September, Sunday

    Time Temperature Precipitation Wind Pressure Humidity
    00:00 +17°C° 0 mm 2 mps 763 mmHg 57%
    01:00 +17°C° 0 mm 2 mps 763 mmHg 57%
    02:00 +17°C° 0 mm 2 mps 763 mmHg 56%
    03:00 +16°C° 0 mm 2 mps 763 mmHg 56%
    04:00 +16°C° 0 mm 2 mps 763 mmHg 55%
    05:00 +16°C° 0 mm 2 mps 763 mmHg 54%
    06:00 +16°C° 0 mm 2 mps 763 mmHg 53%
    07:00 +17°C° 0 mm 2 mps 763 mmHg 47%
    08:00 +19°C° 0 mm 3 mps 763 mmHg 41%
    09:00 +21°C° 0 mm 3 mps 763 mmHg 34%
    10:00 +22°C° 0 mm 4 mps 762 mmHg 31%
    11:00 +23°C° 0 mm 4 mps 762 mmHg 28%
    12:00 +25°C° 0 mm 5 mps 762 mmHg 25%
    13:00 +26°C° 0 mm 5 mps 761 mmHg 23%
    14:00 +26°C° 0 mm 5 mps 761 mmHg 22%
    15:00 +26°C° 0 mm 5 mps 760 mmHg 20%
    16:00 +25°C° 0 mm 4 mps 760 mmHg 23%
    17:00 +22°C° 0 mm 4 mps 760 mmHg 26%
    18:00 +21°C° 0 mm 3 mps 759 mmHg 30%
    19:00 +20°C° 0 mm 4 mps 759 mmHg 32%
    20:00 +20°C° 0 mm 4 mps 759 mmHg 34%
    21:00 +19°C° 0 mm 4 mps 759 mmHg 36%
    22:00 +19°C° 0 mm 4 mps 759 mmHg 37%
    23:00 +18°C° 0 mm 4 mps 758 mmHg 38%

    24 September, Monday

    Time Temperature Precipitation Wind Pressure Humidity
    00:00 +17°C° 0 mm 5 mps 758 mmHg 39%
    01:00 +17°C° 0 mm 4 mps 757 mmHg 41%
    02:00 +17°C° 0 mm 4 mps 757 mmHg 42%
    03:00 +17°C° 0 mm 4 mps 757 mmHg 44%
    04:00 +15°C° 0 mm 4 mps 757 mmHg 45%
    05:00 +15°C° 0 mm 5 mps 756 mmHg 46%
    06:00 +15°C° 0 mm 5 mps 756 mmHg 47%
    07:00 +17°C° 0 mm 5 mps 756 mmHg 44%
    08:00 +19°C° 0 mm 5 mps 756 mmHg 41%
    09:00 +21°C° 0 mm 6 mps 756 mmHg 38%
    10:00 +21°C° 0 mm 6 mps 756 mmHg 40%
    11:00 +22°C° 0 mm 6 mps 756 mmHg 41%
    12:00 +23°C° 0 mm 7 mps 756 mmHg 43%
    13:00 +23°C° 0 mm 6 mps 756 mmHg 47%
    14:00 +22°C° 0 mm 6 mps 756 mmHg 51%
    15:00 +22°C° 0 mm 5 mps 756 mmHg 54%
    16:00 +21°C° 0 mm 4 mps 756 mmHg 58%
    17:00 +21°C° 0 mm 3 mps 756 mmHg 61%
    18:00 +20°C° 0 mm 3 mps 756 mmHg 64%
    19:00 +19°C° 0 mm 3 mps 756 mmHg 66%
    20:00 +19°C° 0 mm 3 mps 756 mmHg 68%
    21:00 +19°C° 0 mm 3 mps 756 mmHg 71%
    22:00 +18°C° 0 mm 3 mps 756 mmHg 72%
    23:00 +18°C° 0 mm 4 mps 756 mmHg 73%

    25 September, Tuesday

    Time Temperature Precipitation Wind Pressure Humidity
    00:00 +17°C° 0 mm 4 mps 755 mmHg 75%
    01:00 +17°C° 0 mm 4 mps 755 mmHg 76%
    02:00 +17°C° 0 mm 4 mps 755 mmHg 78%
    03:00 +17°C° 0 mm 4 mps 755 mmHg 80%
    04:00 +15°C° 0 mm 4 mps 755 mmHg 82%
    05:00 +15°C° 0 mm 4 mps 755 mmHg 85%
    06:00 +14°C° 0 mm 4 mps 755 mmHg 87%
    07:00 +15°C° 0 mm 4 mps 755 mmHg 78%
    08:00 +17°C° 0 mm 5 mps 755 mmHg 68%
    09:00 +19°C° 0 mm 6 mps 755 mmHg 59%
    10:00 +19°C° 0 mm 6 mps 755 mmHg 51%
    11:00 +20°C° 0 mm 6 mps 755 mmHg 43%
    12:00 +21°C° 0 mm 6 mps 755 mmHg 35%
    13:00 +21°C° 0 mm 6 mps 755 mmHg 33%
    14:00 +21°C° 0 mm 6 mps 755 mmHg 32%
    15:00 +21°C° 0 mm 6 mps 755 mmHg 31%
    16:00 +20°C° 0 mm 6 mps 755 mmHg 37%
    17:00 +19°C° 0 mm 6 mps 756 mmHg 43%
    18:00 +17°C° 0 mm 5 mps 756 mmHg 49%
    19:00 +16°C° 0 mm 5 mps 756 mmHg 54%
    20:00 +15°C° 0 mm 4 mps 757 mmHg 59%
    21:00 +14°C° 0 mm 4 mps 757 mmHg 64%
    22:00 +13°C° 0 mm 4 mps 758 mmHg 63%
    23:00 +12°C° 0 mm 3 mps 758 mmHg 62%
    Show more